Погода в Первом Мая

Россия / Брянская область     52°44′35″N   32°12′05″E
темп.,
°C
ветер,
м/с
пор.,
м/с
влажн.,
%
обл.,
%
осадки,
мм/ч
давл.,
гПа
погр.,
м
17 июня, чт
чт1700:00+15св49850 0.0 1018157
03:00+14всв38850 0.0 1020142
06:00+14св38860 0.0 1020154
09:00+19всв58710 0.0 1021465
12:00+22всв67590 0.0 10221395
15:00+23св56550 0.0 10221474
18:00+23всв47630 0.0 1022885
21:00+18всв35800 0.0 102363
18 июня, пт
пт1800:00+15всв48840 0.0 1024133
03:00+13всв499240 0.0 1025160
06:00+14всв410905 0.0 1025225
09:00+19в58720 0.0 1025528
12:00+22в67591 0.0 10251169
15:00+24в57560 0.0 10241424
18:00+23в57676 0.0 1024880
21:00+18вюв47872 0.0 1024135
19 июня, сб
сб1900:00+15в36935 0.0 1025106
03:00+14вюв37955 0.0 1025122
06:00+15в37935 0.0 1026168
09:00+20в57745 0.0 1025563
12:00+22вюв56630 0.0 10241017
15:00+24вюв56590 0.0 10231264
18:00+24вюв46693 0.0 10221265
21:00+20юв37893 0.0 1023135
20 июня, вс
вс2000:00+17вюв38940 0.0 1023145
03:00+16вюв37950 0.0 1023123
06:00+16в37930 0.0 1023189
09:00+21вюв57755 0.0 1022478
12:00+24вюв566381 0.0 1022885
15:00+25вюв5657100 0.0 10201033
18:00+24вюв3670100 0.0 1020786
21:00+20вюв4108877 0.0 1019201
21 июня, пн
пн2100:00+17вюв3893100 0.0 1020144
03:00+16всв349399 0.0 101966
06:00+17в4991100 0.0 1019193
09:00+21в5974100 0.0 1019348
12:00+25в686433 0.0 1018715
15:00+28вюв695923 0.0 10171023
18:00+27вюв5969100 0.0 1017807
21:00+22вюв4128994 0.0 1017275